Theta_e
291 291 291 291 290 290 290 289 289 288 290 291 288 289 289 283 278 282 288 289 286 287 289 290 291 292 291 292 292 293 293 293 292 292 291 291 292 292 292 292 293 293 293 293 293 294 295 296 296 296 296 297 298 298 299 300 301 302 303 304 305 306 307 309 310 315 318 320 319 319 319 320 320 320 320 320 320 319 317 315 314 314 315 313 311 309 307
289 289 289 290 289 288 289 289 289 290 290 290 289 288 289 289 287 289 288 286 286 288 289 291 292 294 293 292 293 292 291 291 291 291 290 291 291 291 291 291 291 291 291 292 292 293 293 294 295 296 296 296 297 298 299 300 300 302 303 303 304 304 305 306 307 310 316 317 318 319 319 319 319 320 319 319 318 318 316 314 313 313 311 310 310 308 306
286 288 290 289 288 288 286 288 289 290 290 289 289 290 289 289 287 287 287 285 284 289 292 291 293 294 293 292 291 290 291 291 290 290 290 290 290 291 291 290 290 291 291 291 292 292 292 293 295 295 296 296 297 298 299 299 300 301 302 302 302 303 303 304 306 308 311 316 317 318 319 319 318 318 318 317 317 316 313 312 312 311 310 308 306 306 305
284 287 287 287 288 287 286 285 287 287 287 285 286 285 289 288 285 286 286 284 283 288 291 291 291 291 290 289 290 290 291 292 291 290 289 289 289 289 289 290 290 290 291 291 291 291 292 293 294 295 295 296 296 297 298 299 300 301 301 301 301 302 303 304 305 306 308 313 317 316 316 317 317 317 316 315 314 313 312 311 310 308 307 305 303 302 301
282 287 288 287 287 285 282 283 286 288 288 288 289 289 290 289 290 287 285 284 288 289 290 288 288 289 289 289 290 290 291 292 291 290 290 290 290 290 290 290 290 290 290 290 291 291 292 293 294 295 295 295 295 296 297 299 300 300 300 300 300 301 302 303 303 304 306 310 315 316 316 317 317 316 314 313 311 311 310 309 306 305 303 302 300 299 299
282 286 286 284 280 274 277 289 292 292 286 287 285 285 287 289 290 287 289 288 289 289 289 288 287 287 288 289 291 292 291 291 291 291 291 291 291 291 291 291 290 290 290 291 291 291 292 293 294 294 295 295 296 297 297 298 298 298 299 299 299 300 301 302 302 303 304 305 306 308 315 316 316 313 312 311 309 307 306 305 302 300 299 298 297 297 297
281 281 280 279 274 276 287 291 291 290 289 289 287 288 289 290 290 289 288 288 288 289 289 289 289 289 290 291 291 291 292 292 291 291 291 291 292 291 291 291 290 290 290 290 291 291 292 293 293 293 294 295 295 295 295 296 297 297 298 298 298 299 299 300 302 302 303 303 304 305 305 311 313 312 311 307 305 304 302 301 299 297 296 295 296 296 295
280 279 276 275 276 285 290 290 291 293 291 289 287 286 288 290 290 290 287 288 289 289 289 289 290 289 289 290 291 292 292 292 291 291 291 292 292 291 292 290 290 290 291 291 291 291 293 292 292 293 293 295 295 294 295 296 296 296 297 297 297 298 298 299 300 302 302 302 303 303 303 304 307 309 307 305 302 301 299 298 298 296 295 295 294 294 294
280 280 280 279 285 285 287 286 287 289 286 286 284 280 284 289 291 290 288 288 289 289 289 289 289 290 289 287 287 291 292 292 293 292 292 292 293 293 293 293 292 292 292 292 293 293 292 292 292 292 293 295 294 294 295 296 296 296 296 296 296 297 298 298 299 300 301 302 302 302 302 302 301 302 302 301 301 300 298 297 297 296 294 294 294 294 294
282 281 278 280 279 277 282 287 291 293 293 291 290 286 283 290 290 292 290 288 288 288 289 289 289 290 286 283 284 289 292 293 293 294 294 294 294 294 294 294 294 293 293 294 294 294 293 293 292 292 292 293 293 293 294 294 295 295 295 295 296 297 297 298 299 299 300 301 301 301 301 301 301 301 301 301 300 300 297 296 295 295 295 295 295 296 295
280 279 277 277 276 278 284 286 289 292 293 292 291 285 281 287 289 289 291 289 289 289 288 288 290 288 282 282 284 289 292 293 294 293 293 294 294 294 294 294 293 293 294 294 294 294 293 293 293 292 292 292 293 292 293 293 293 293 293 295 296 296 297 298 299 299 299 300 301 301 301 301 301 300 300 300 300 299 298 297 296 296 296 296 296 296 296
273 276 275 275 279 279 284 288 290 292 293 293 289 278 279 285 287 288 289 290 290 290 289 289 288 285 281 282 285 290 292 293 293 293 293 294 294 294 295 294 295 294 295 294 293 293 293 293 293 292 292 292 293 292 292 292 292 293 293 295 296 297 297 297 298 299 299 299 299 300 300 300 301 300 300 299 298 298 297 297 296 296 296 296 295 295 296
275 277 276 279 280 286 289 289 291 293 294 291 281 277 281 287 287 287 287 288 288 289 288 288 284 284 286 287 290 291 292 292 293 294 295 295 295 294 294 294 295 294 293 293 292 292 293 294 294 293 292 292 291 291 291 291 291 292 293 295 296 297 297 297 297 298 298 298 298 299 300 300 301 301 300 300 299 298 297 297 297 296 296 296 296 296 296
273 275 277 277 280 286 288 290 292 294 289 281 280 284 288 287 287 288 288 287 288 288 287 286 286 286 288 291 291 291 291 291 292 293 294 294 295 295 295 295 295 294 293 293 292 293 293 294 294 293 293 293 292 292 291 291 291 293 293 293 294 295 296 296 297 297 298 298 299 299 299 300 300 300 300 301 300 299 298 297 296 296 296 296 296 296 296
272 270 273 274 274 284 289 289 291 291 285 283 286 287 288 289 288 288 288 288 287 288 286 288 287 287 288 289 290 291 291 291 292 292 293 293 293 293 294 294 295 295 293 292 292 292 293 293 294 294 294 293 293 293 292 293 294 294 294 294 293 294 295 295 296 296 297 297 298 299 298 299 299 299 300 300 300 300 299 298 297 296 296 296 295 295 295
274 268 269 273 282 286 290 290 285 286 287 289 289 288 286 289 289 288 288 288 289 289 289 288 289 289 289 289 290 291 291 292 292 293 293 293 293 294 294 295 294 295 294 293 292 292 293 293 293 294 294 293 294 293 293 295 295 295 295 294 294 295 294 294 295 295 296 297 297 298 298 298 298 297 298 299 299 299 299 298 297 296 296 296 295 294 294
275 276 280 285 288 289 290 290 289 289 290 291 290 289 288 288 289 290 289 289 290 291 290 290 289 288 289 289 290 290 290 291 291 292 292 293 293 293 293 294 294 294 293 293 292 292 293 293 293 293 293 293 293 293 293 294 294 294 294 294 294 294 294 294 294 295 295 295 295 296 297 297 297 297 297 297 297 298 298 298 297 296 295 295 294 293 293
288 288 289 289 289 289 289 290 291 290 291 292 292 290 288 288 290 290 289 290 291 291 291 289 289 289 289 289 290 290 290 291 291 292 292 292 293 293 294 294 294 294 293 292 292 292 293 293 292 292 292 292 292 292 293 294 293 293 292 292 293 293 294 294 293 294 293 293 293 294 295 296 296 296 296 296 296 296 297 297 296 296 295 295 294 293 293
283 278 288 287 287 289 290 290 291 292 292 291 291 290 290 290 291 291 291 291 291 291 291 290 289 289 290 289 290 290 290 290 290 291 291 292 292 292 292 293 293 293 292 291 291 291 291 292 290 290 289 291 292 292 292 292 292 291 291 291 291 291 292 293 293 292 291 292 291 291 292 293 294 294 294 295 295 295 295 296 295 295 295 294 294 293 293
283 282 287 288 289 289 291 290 289 289 290 291 291 290 289 290 290 290 291 291 290 290 290 290 289 289 289 289 289 289 290 290 291 291 292 292 291 292 292 292 292 291 290 288 288 289 289 289 288 288 288 289 291 290 291 292 291 291 291 290 289 290 290 291 292 292 291 289 290 290 289 289 289 291 292 292 291 290 291 293 295 294 295 294 293 293 293
285 288 289 288 288 288 289 290 289 291 290 290 290 290 290 290 289 289 291 291 290 290 289 289 289 288 288 287 287 288 287 287 287 289 290 290 290 290 290 290 289 287 287 287 286 287 288 288 287 287 287 289 290 290 291 291 290 291 290 289 289 289 289 289 289 290 290 291 291 290 290 289 289 288 289 290 291 291 291 290 292 294 294 294 294 294 293
281 281 284 286 280 280 285 287 288 289 290 290 290 290 290 289 289 288 288 288 288 288 287 286 285 284 284 285 286 286 286 286 286 286 287 287 287 288 288 288 285 284 286 287 286 287 287 287 287 287 287 288 289 290 290 290 290 291 290 289 288 288 288 288 288 288 290 290 291 291 290 290 289 289 287 288 289 290 290 289 289 289 290 292 293 293 291
281 286 288 289 287 286 287 287 288 289 290 290 289 289 289 288 288 288 287 286 287 287 287 284 285 283 283 284 283 284 283 285 285 285 285 286 287 288 288 286 284 283 284 286 285 286 287 287 288 287 287 288 289 290 290 289 288 289 288 289 287 288 288 287 287 287 288 288 289 289 289 289 290 289 289 290 288 288 289 289 289 289 289 289 289 289 292
288 290 289 289 287 286 287 289 290 290 290 290 289 288 288 289 288 288 287 288 288 286 286 286 286 286 285 284 284 284 285 285 285 286 285 285 285 286 285 284 284 284 285 285 285 286 286 286 286 286 287 288 288 289 289 289 288 288 287 288 287 287 288 288 288 286 285 285 286 287 287 288 288 289 288 288 289 289 288 289 289 289 289 288 288 288 288
286 290 289 289 288 289 289 289 289 289 290 290 288 288 288 288 287 287 287 287 286 286 286 287 287 287 287 285 285 285 284 285 285 286 286 286 285 285 284 284 284 284 283 283 283 284 285 286 286 287 287 288 288 288 288 288 288 288 287 288 288 288 288 288 288 288 287 286 286 287 287 286 287 286 286 286 287 287 289 289 289 289 288 289 288 288 288
290 288 289 289 289 288 288 289 288 288 288 289 289 289 290 292 289 289 287 287 287 286 286 286 287 287 287 287 286 285 285 284 286 286 284 285 284 284 284 284 284 284 283 283 284 285 284 285 286 286 287 288 288 288 288 288 287 287 287 286 287 287 287 286 287 288 288 286 285 286 288 289 288 287 286 287 287 286 287 286 288 289 289 289 288 289 289
289 290 290 288 287 286 288 288 286 289 289 288 289 289 290 289 293 290 289 288 287 287 287 287 287 287 287 287 287 285 286 284 284 283 283 283 284 285 284 283 283 283 283 284 284 285 285 286 285 285 287 288 287 287 287 287 287 287 286 287 286 286 286 287 287 286 284 283 283 285 287 288 288 288 288 287 287 287 286 286 286 286 285 287 288 288 288
289 290 290 286 285 286 287 290 288 290 289 290 288 288 289 289 289 289 288 288 288 287 287 287 287 286 285 284 284 284 283 283 283 282 283 284 284 283 282 282 281 281 282 283 283 284 284 284 285 285 286 288 287 287 287 287 288 287 286 287 287 286 287 287 287 284 283 284 284 286 286 287 289 289 288 288 288 288 287 286 286 284 286 285 285 288 288
289 290 290 290 290 290 289 287 287 288 289 289 290 288 289 288 287 287 287 288 288 288 289 288 286 286 286 284 283 283 282 282 282 283 283 282 283 282 281 281 281 281 282 282 283 284 284 284 284 285 287 287 287 287 287 286 287 287 286 285 285 285 285 285 285 285 284 284 284 285 285 285 287 288 288 288 288 289 288 287 286 285 284 284 286 287 288
287 287 288 287 286 286 286 285 286 287 289 289 288 288 288 289 287 287 287 287 286 288 288 286 285 284 283 284 283 284 284 283 284 283 282 282 281 281 280 281 280 281 283 284 284 283 283 283 284 285 287 287 287 286 287 286 285 288 287 286 284 284 284 284 286 286 285 284 283 284 284 285 286 287 287 288 288 287 286 286 285 285 285 283 285 283 285
285 285 286 285 285 286 287 284 284 286 287 287 288 286 286 286 286 284 284 283 284 284 284 285 285 284 283 285 285 284 284 283 282 282 282 281 281 280 279 281 284 282 282 283 283 283 282 283 283 285 286 286 286 285 285 286 285 286 286 284 284 285 286 286 286 286 284 283 283 284 284 284 284 285 286 286 286 286 285 285 284 284 282 282 282 282 283
285 284 285 285 285 284 284 284 285 284 284 285 286 286 285 286 284 284 284 284 285 284 283 283 284 285 284 283 283 283 283 282 283 282 281 280 279 278 277 280 283 282 281 282 282 282 282 281 284 287 286 285 286 285 285 286 284 285 287 285 286 287 287 287 287 286 284 282 282 283 284 285 284 284 284 284 284 284 284 284 283 282 281 282 283 282 283
284 282 282 283 283 283 284 284 285 284 285 285 286 287 286 286 287 286 286 285 284 284 284 284 284 284 283 283 283 283 282 281 279 278 277 277 277 278 276 279 281 281 281 282 282 282 281 282 286 286 285 285 285 285 285 285 286 286 285 285 285 287 289 289 287 288 286 283 283 283 283 283 283 283 282 282 282 282 282 282 282 282 282 282 283 283 284
286 285 285 285 285 284 284 284 283 283 284 284 285 285 285 285 286 285 284 283 284 284 284 285 284 283 282 282 282 280 278 279 280 279 278 277 277 277 277 279 280 281 282 282 281 281 283 283 283 284 285 285 285 285 285 285 284 284 285 284 284 287 290 290 288 287 283 282 283 283 284 283 282 282 282 282 282 281 282 282 281 282 282 283 284 285 286
288 286 286 285 283 284 286 286 285 284 285 284 284 284 284 284 285 285 284 285 286 287 286 285 284 282 281 279 277 277 277 280 279 277 277 276 275 275 278 280 281 281 282 283 282 282 283 283 283 283 283 284 285 285 285 286 285 286 286 285 286 286 287 289 290 289 286 283 283 284 284 283 282 282 282 281 282 281 280 282 283 284 284 284 284 284 285
286 286 285 284 284 285 286 286 286 286 286 286 286 286 285 284 284 285 285 285 285 285 285 284 282 281 278 278 276 275 277 277 275 273 273 274 273 273 278 282 281 281 281 283 284 283 283 283 283 282 282 284 285 285 285 285 285 284 284 284 285 286 288 290 289 287 284 283 283 283 283 284 283 283 282 281 282 281 282 283 284 285 285 285 285 284 284
287 287 286 286 285 285 285 285 285 285 286 286 286 285 285 284 285 285 286 285 285 286 286 284 281 280 280 280 280 276 275 276 276 276 277 273 273 277 281 281 281 281 281 281 283 282 282 283 283 283 284 283 283 284 283 284 284 284 284 285 285 286 287 289 288 285 284 282 282 282 283 284 284 283 281 281 281 280 282 284 285 285 285 285 285 284 284
286 287 287 286 286 285 285 285 285 285 285 285 285 285 286 286 284 285 286 285 285 285 284 285 284 284 283 279 277 276 276 273 273 274 272 272 274 281 282 282 282 281 281 283 280 280 283 282 284 285 284 284 285 284 284 283 284 284 286 286 286 286 286 285 285 283 283 282 283 282 283 284 284 283 283 282 281 281 282 285 286 286 286 285 284 283 283
285 285 285 285 284 285 285 285 284 286 288 287 286 285 285 285 285 285 286 286 285 285 285 285 283 283 282 283 283 282 280 278 276 276 275 275 278 281 282 283 283 284 284 283 282 283 283 283 283 284 284 284 284 285 285 284 284 284 285 285 286 285 284 285 285 285 284 282 283 284 284 284 285 285 283 282 281 281 283 284 285 285 285 286 286 285 284
285 286 286 285 285 285 286 285 285 286 286 288 288 288 286 286 286 286 286 286 287 285 285 285 284 284 282 282 282 283 284 283 281 277 278 278 280 280 282 284 285 285 285 284 284 284 283 283 283 285 285 284 284 284 283 283 282 282 284 284 284 284 284 285 285 285 283 283 284 284 284 284 284 284 284 283 281 281 281 283 284 284 284 285 286 285 284
286 286 285 286 285 284 286 286 285 285 286 287 287 288 287 288 286 286 286 287 288 286 285 285 285 284 284 284 284 285 284 283 282 281 280 280 282 281 281 282 281 282 283 282 282 282 283 283 283 284 285 284 283 282 281 281 282 282 283 283 283 283 283 283 284 286 286 285 286 285 285 284 283 284 284 283 282 281 281 282 283 284 285 286 287 286 284
285 285 285 285 285 285 284 284 285 286 286 286 286 286 287 286 288 289 288 285 286 286 285 285 285 287 286 284 283 283 284 284 284 282 282 284 285 282 280 283 283 284 283 284 283 283 283 282 282 284 285 285 284 283 282 282 281 281 281 282 282 282 283 283 283 285 286 286 285 284 283 283 283 285 284 283 281 281 281 282 282 285 286 287 287 286 285
285 286 286 286 285 285 285 286 287 287 286 285 286 287 288 286 286 286 286 285 286 286 287 286 285 285 285 284 284 285 285 284 284 283 282 284 284 284 285 285 282 282 284 283 282 282 281 282 283 283 284 285 285 284 285 281 280 280 281 282 282 282 282 282 282 283 282 282 282 282 283 284 284 285 285 283 282 282 281 282 283 284 284 286 286 287 287
286 286 286 286 286 285 285 286 286 286 288 287 286 286 286 286 286 287 287 286 287 286 287 286 286 285 285 284 284 285 286 284 284 283 283 284 285 285 286 286 286 286 285 282 281 282 282 281 280 282 283 284 284 284 283 281 281 281 281 281 282 282 282 282 281 281 281 282 283 283 283 284 284 283 284 284 284 282 281 280 281 282 283 284 286 286 286
287 286 286 286 285 285 286 286 287 287 286 285 285 285 286 286 286 285 286 285 287 287 285 285 285 285 284 284 285 286 285 286 287 285 284 285 285 284 282 284 286 285 283 283 281 282 282 282 283 283 284 284 284 285 283 281 281 281 281 281 282 281 281 281 281 281 281 282 283 283 283 284 283 283 283 284 284 284 281 281 283 282 284 284 284 286 287
287 287 286 284 285 286 287 286 285 284 285 285 286 287 285 285 285 285 285 286 285 286 286 285 285 284 284 284 284 285 284 284 284 285 285 286 286 285 282 283 281 282 283 283 282 282 283 282 283 284 284 284 284 283 282 281 281 280 280 280 281 281 281 281 281 280 281 282 282 283 283 283 283 284 283 284 284 285 284 282 282 281 281 283 285 286 288
287 286 285 285 286 285 285 285 285 286 285 286 286 286 286 285 286 286 286 286 286 287 286 286 286 286 285 287 287 285 286 287 286 284 285 286 285 285 284 284 283 283 283 281 281 282 282 283 282 283 284 284 284 282 280 280 280 280 280 280 280 280 280 281 282 281 280 280 281 282 283 282 283 283 283 283 283 284 284 283 282 282 282 283 285 285 286
287 286 286 286 286 285 285 285 287 286 286 287 286 286 286 286 286 286 285 285 285 285 286 286 286 287 285 285 286 286 286 286 285 285 283 283 282 283 282 282 282 283 283 283 283 283 283 283 283 283 283 284 282 280 279 279 279 279 279 280 281 280 280 280 282 280 280 282 283 282 281 283 282 282 282 283 284 285 285 284 283 282 282 283 285 285 287
288 288 287 286 286 285 286 286 286 285 286 285 285 286 285 285 284 284 284 285 285 286 286 287 288 288 288 286 286 284 284 281 285 288 284 284 283 283 281 282 283 283 283 282 282 282 283 283 283 283 283 283 281 280 280 279 280 280 280 281 280 279 280 280 281 280 280 282 281 282 281 281 282 283 282 283 283 284 284 284 283 282 282 282 283 285 285
287 287 286 285 285 285 285 285 284 286 287 285 285 285 283 284 285 286 284 283 284 284 284 285 286 285 285 284 284 283 284 283 283 283 283 283 284 283 282 281 281 283 283 282 283 282 282 283 283 283 281 280 280 280 280 280 280 280 281 281 279 279 280 280 282 283 282 282 282 281 281 281 281 281 282 282 283 283 283 283 283 284 284 284 283 283 284
285 286 285 285 286 287 287 288 288 287 286 285 285 283 283 285 286 284 283 284 284 286 285 285 284 284 283 284 283 283 284 285 285 285 284 282 281 282 283 282 281 282 281 281 281 281 280 280 280 280 282 282 280 281 280 280 280 280 280 279 281 280 280 281 281 281 283 282 282 282 281 281 281 280 279 280 282 283 283 283 283 282 282 283 283 283 283
287 287 287 287 287 287 287 287 287 287 287 286 285 283 283 284 284 284 284 284 284 287 284 285 285 285 283 283 284 284 283 285 285 283 283 282 282 282 281 284 283 283 282 282 282 282 281 280 281 282 282 281 280 279 281 282 280 280 280 280 281 280 281 281 281 281 281 282 282 282 282 280 279 279 280 279 280 282 281 282 283 283 284 283 283 282 282
Wind_Speed
10 8 10 12 13 11 9 9 8 9 6 11 7 2 2 3 3 7 9 9 7 6 7 7 7 8 8 8 9 9 7 7 8 9 10 10 10 10 10 10 9 8 9 9 9 9 10 11 12 12 11 11 11 11 11 12 12 12 11 9 10 9 7 7 8 8 5 1 3 2 3 4 5 6 7 7 7 7 7 6 5 5 5 5 5 4 3
9 7 7 10 17 9 12 11 11 9 12 11 11 10 7 9 8 9 13 12 10 6 6 6 7 6 8 9 8 8 10 9 8 8 9 9 9 9 9 9 8 7 7 8 9 10 11 12 13 12 12 12 12 12 13 12 13 13 12 11 9 10 9 9 8 9 8 5 1 5 4 5 6 5 6 5 5 6 6 5 4 5 5 4 6 7 6
5 6 6 9 11 13 13 10 9 8 9 11 8 8 10 14 12 10 12 12 8 4 6 7 7 6 8 9 10 9 8 8 8 9 9 8 8 8 8 8 8 8 8 9 10 11 12 13 13 12 12 11 11 12 12 12 13 13 12 12 13 11 10 10 9 8 8 7 4 4 6 5 3 4 4 5 6 5 6 5 5 4 5 5 4 5 7
2 1 7 10 14 15 14 12 10 8 7 8 6 4 4 2 9 9 11 7 4 5 6 7 8 9 10 10 9 8 7 8 8 8 8 8 8 8 7 7 7 8 9 9 10 10 11 11 12 12 11 11 11 12 11 12 11 11 12 12 12 13 13 11 9 9 8 8 5 2 2 2 3 3 4 4 4 4 6 7 5 4 4 4 4 4 5
2 3 1 5 5 7 7 6 5 8 8 7 6 8 10 8 2 6 6 4 5 7 6 9 9 10 9 9 8 7 7 7 8 8 8 8 8 7 6 7 7 7 7 7 8 9 8 9 10 11 10 10 11 11 11 10 9 11 12 12 12 12 13 14 13 10 8 7 7 4 3 3 5 5 4 4 3 2 5 6 6 5 4 4 3 2 4
5 4 3 1 3 3 1 2 4 2 2 8 11 6 8 9 6 3 4 8 8 8 7 9 9 9 9 8 7 6 6 6 7 8 8 8 8 7 7 7 7 7 7 7 7 7 8 9 9 9 9 9 9 9 9 9 11 11 11 12 12 12 13 12 12 11 11 10 9 10 4 5 3 4 4 5 6 5 4 6 7 6 5 5 4 3 3
6 1 1 4 1 3 2 3 6 9 7 12 14 11 10 8 9 11 11 10 9 8 8 10 11 10 9 8 9 8 8 7 6 7 8 8 8 9 9 10 9 8 7 7 8 8 9 8 8 9 10 9 9 10 9 10 10 11 11 11 12 12 13 13 12 12 11 10 12 10 9 6 2 4 3 6 7 6 7 7 6 5 5 5 4 4 4
3 2 2 3 2 3 4 4 4 3 3 3 7 10 9 9 6 7 9 9 9 10 10 9 7 9 8 9 9 8 8 7 6 7 8 8 8 9 9 7 8 8 8 7 7 7 6 7 8 7 8 8 9 9 8 10 10 10 10 11 12 12 13 13 12 12 10 10 10 11 10 8 5 1 7 5 8 8 8 8 8 7 7 6 6 6 5
5 2 3 5 6 5 2 0 2 3 2 2 1 4 3 6 4 5 8 9 9 9 9 7 7 7 7 9 7 8 8 7 7 7 8 8 9 8 8 6 7 6 6 6 7 6 7 7 8 8 7 8 8 9 10 10 10 10 11 12 12 12 12 12 12 11 11 9 10 11 10 10 10 10 6 6 5 4 11 9 9 9 8 7 6 6 6
2 6 5 4 1 3 4 2 3 2 2 2 1 5 1 3 6 3 8 10 9 8 7 7 6 4 5 6 5 7 7 7 7 7 8 8 8 8 8 9 8 8 8 8 7 8 8 9 8 7 7 7 7 8 10 10 10 10 11 12 11 11 11 12 11 11 11 9 10 12 12 11 11 10 10 8 6 4 8 12 12 10 9 7 7 8 8
3 3 5 3 4 1 2 3 2 2 3 2 0 3 2 1 3 5 4 7 8 8 8 7 2 1 3 2 1 4 5 5 6 7 7 7 7 7 7 7 8 8 8 7 8 9 9 9 9 8 7 8 8 8 8 9 9 10 10 10 11 11 11 10 11 11 10 10 9 10 13 12 11 11 10 8 7 6 7 12 12 11 11 9 8 9 9
1 5 3 3 0 1 1 2 2 3 3 2 0 1 2 2 3 3 2 7 8 6 3 2 2 2 4 5 2 1 2 2 5 6 6 7 7 7 7 7 6 6 7 9 10 10 10 9 8 8 7 7 7 7 8 7 8 9 9 9 9 9 9 9 10 10 11 11 11 9 10 12 12 12 10 9 9 8 7 7 12 12 11 10 10 9 9
5 5 2 3 1 0 1 2 3 4 3 1 1 3 1 2 3 3 2 3 3 3 4 2 3 2 2 6 4 2 2 5 6 4 3 3 3 5 6 7 8 8 8 8 8 8 7 8 8 7 7 7 8 7 7 8 8 8 7 7 8 9 9 9 9 10 10 11 12 11 9 9 11 10 11 11 9 9 8 6 10 13 13 11 11 8 9
3 2 5 3 1 0 1 2 2 2 2 3 4 2 3 6 4 3 3 4 4 5 6 6 7 6 5 5 4 4 4 3 2 3 4 5 6 5 5 6 7 8 8 9 9 10 8 9 8 7 7 8 7 7 8 9 7 6 6 7 7 7 9 9 9 9 10 10 11 10 10 8 10 12 9 10 10 9 8 7 10 13 11 10 10 9 8
3 2 3 2 2 1 3 4 1 4 1 1 4 6 6 6 6 7 6 6 6 9 9 8 8 7 5 5 4 3 2 2 2 2 3 4 5 6 6 7 8 7 7 8 9 8 8 7 7 6 7 8 8 8 9 7 6 6 6 6 6 7 7 9 9 9 9 10 9 9 9 9 9 9 9 11 10 9 9 9 10 12 12 9 9 9 9
4 2 2 2 1 2 4 2 2 1 2 5 5 7 7 5 5 6 7 7 6 8 9 8 6 6 7 4 4 3 1 0 0 1 2 3 4 5 5 5 6 7 7 8 8 9 8 8 7 7 6 7 7 8 7 5 7 7 7 6 6 7 7 8 8 8 9 9 9 9 10 9 10 10 9 8 9 9 8 8 7 10 9 8 8 9 9
1 2 3 2 3 4 5 6 8 8 6 5 4 7 8 8 5 5 7 8 6 7 9 8 7 5 3 4 2 2 2 1 1 1 2 2 4 5 5 7 7 5 6 7 7 8 9 8 8 7 5 5 6 7 7 5 6 6 6 6 6 6 7 7 8 7 8 8 9 9 9 9 9 9 9 8 8 6 7 7 8 10 9 8 8 7 8
10 10 7 5 5 6 7 7 7 9 8 7 7 8 8 3 5 5 8 8 8 6 5 8 4 5 4 3 2 1 1 2 3 2 3 4 3 4 5 6 7 7 7 7 7 7 9 8 8 7 6 4 5 6 6 6 6 6 6 7 6 6 5 6 7 7 7 7 8 9 8 7 8 7 7 7 7 6 6 7 7 8 7 7 6 7 7
1 5 2 6 7 6 8 8 7 7 6 5 5 6 7 6 5 5 5 7 6 5 4 4 5 4 2 2 0 1 2 2 3 4 4 4 3 3 5 5 5 7 6 7 7 7 7 8 7 7 6 5 4 5 6 6 5 5 6 6 6 6 6 5 5 6 7 6 6 7 8 7 7 7 6 6 7 7 6 7 7 7 7 6 6 6 6
4 6 5 7 7 7 6 5 8 7 6 5 4 4 4 4 3 4 4 5 5 4 4 4 4 3 2 2 1 1 2 3 3 4 4 5 5 5 3 4 4 4 4 4 5 5 6 7 6 5 4 5 5 5 6 6 5 6 7 6 6 6 6 5 5 5 5 7 8 6 7 7 7 7 7 6 7 6 5 5 5 5 5 5 6 5 5
8 10 7 7 8 8 4 2 3 4 5 6 5 5 6 5 5 4 3 2 3 3 4 4 4 3 2 2 2 2 3 3 4 3 4 4 5 6 7 7 5 4 3 4 4 4 6 6 5 5 4 4 5 6 6 5 5 6 7 6 6 7 6 5 5 4 5 5 5 5 6 7 6 6 5 6 5 5 5 3 2 3 5 5 4 3 3
5 4 7 8 7 5 3 2 4 4 4 6 6 6 6 5 5 4 4 3 2 2 3 3 3 4 4 3 2 3 3 4 4 5 5 5 5 7 5 4 3 4 3 3 4 4 5 5 4 5 5 5 5 4 5 5 4 6 5 7 7 7 5 6 4 5 5 4 4 4 5 5 5 6 8 9 7 5 5 8 12 11 6 3 3 2 4
6 4 11 1 5 8 5 6 4 4 5 6 7 7 7 5 5 4 5 3 0 1 1 2 3 3 3 4 1 3 4 5 4 4 4 5 6 6 5 4 5 4 4 4 4 5 5 5 5 5 4 5 5 5 4 4 4 4 5 6 6 7 6 6 5 3 3 3 4 4 3 4 4 4 5 8 12 12 9 9 11 11 12 11 11 8 5
6 8 5 4 7 9 6 5 5 5 4 5 5 4 5 6 6 5 5 6 7 4 3 2 4 4 4 3 2 3 4 4 4 5 4 3 4 4 3 3 3 4 5 5 4 4 5 4 4 4 4 5 5 4 4 4 3 3 4 5 5 4 4 4 4 4 3 2 2 3 3 3 3 4 5 6 7 10 11 11 11 12 11 11 9 9 8
10 6 4 5 6 8 6 6 4 4 4 6 7 7 6 5 4 4 5 4 2 3 4 4 4 4 4 3 3 3 3 3 4 4 2 1 2 1 2 2 4 4 4 3 3 3 4 5 5 5 5 5 4 5 4 3 3 3 3 4 4 4 4 4 4 4 4 3 2 1 2 3 4 3 4 6 7 6 6 8 10 11 11 9 8 8 8
7 5 5 5 6 6 4 4 2 1 2 2 1 1 2 3 3 3 4 3 2 2 3 3 4 4 3 3 0 1 2 3 1 2 3 1 1 1 2 3 3 3 3 3 4 4 5 5 5 5 5 5 5 5 5 1 2 1 2 2 2 3 4 3 4 5 4 3 3 2 0 1 3 5 3 4 5 5 6 5 5 6 8 11 11 9 10
6 7 10 10 7 4 5 8 6 6 5 4 5 6 6 4 3 2 0 1 3 3 4 4 4 3 1 1 1 3 4 1 1 1 3 2 1 0 1 3 3 3 3 4 5 5 6 5 5 4 5 6 4 4 4 2 2 1 2 2 3 4 6 5 4 3 2 3 3 3 3 2 2 3 4 3 4 4 5 5 5 4 3 6 8 10 7
7 7 7 8 8 7 9 9 4 6 5 6 4 1 0 1 1 0 2 4 4 4 3 4 4 4 4 2 2 0 2 3 5 3 1 2 2 2 2 3 3 4 3 4 4 5 6 5 5 5 6 6 4 4 4 4 0 1 0 1 2 3 4 5 5 3 3 3 3 4 3 4 5 4 3 3 4 3 2 3 4 3 4 5 3 6 11
7 8 6 7 9 9 5 3 2 3 5 3 1 2 3 3 2 2 4 5 5 3 4 5 3 3 3 3 3 4 4 4 4 3 4 3 3 2 3 3 3 3 4 4 5 6 6 6 5 6 7 6 5 4 5 4 1 1 1 2 3 4 4 4 4 3 3 3 4 3 3 4 5 5 3 3 2 3 3 3 4 4 3 2 4 5 6
7 5 5 4 4 5 6 5 5 5 6 5 4 4 4 5 4 5 5 5 4 5 7 4 3 2 3 4 5 7 8 7 6 4 3 3 3 3 3 3 3 4 5 6 6 6 6 5 5 5 7 6 7 5 4 4 2 0 0 2 3 5 3 3 3 4 3 3 2 4 2 3 4 5 5 4 4 3 3 3 3 3 3 3 3 4 4
5 5 7 5 6 5 7 5 5 6 6 5 6 4 4 4 5 4 5 4 2 4 3 5 5 4 4 5 6 3 2 3 4 4 3 3 3 4 3 2 2 3 4 5 5 5 5 5 4 5 6 5 6 4 4 4 4 1 1 3 3 5 6 5 5 5 2 1 3 3 2 2 2 3 4 3 2 2 2 3 3 3 2 3 3 3 2
6 6 8 7 7 6 5 5 5 5 5 6 8 7 7 7 5 5 4 4 5 5 4 4 5 5 5 4 4 3 4 3 1 1 2 4 4 5 3 1 0 2 3 4 4 4 4 4 5 6 6 5 5 5 4 4 4 3 0 4 3 3 4 6 5 5 4 2 4 3 0 1 2 2 3 2 1 1 2 3 3 2 2 3 3 2 1
7 5 4 3 3 4 5 4 7 7 8 9 9 8 7 6 7 6 6 4 3 2 4 5 4 4 4 4 4 3 2 1 0 1 3 4 6 5 3 1 1 2 4 4 4 5 4 4 5 6 6 5 5 5 4 3 2 0 0 4 1 1 2 2 3 3 4 1 3 3 2 1 1 3 2 2 2 3 3 3 3 2 2 2 3 1 1
9 8 9 7 8 7 7 3 3 5 3 2 5 6 5 5 6 5 4 3 4 4 4 5 4 4 4 4 4 3 3 2 1 4 5 6 6 5 3 2 2 3 4 4 4 5 4 3 3 5 5 5 5 4 3 1 2 1 1 2 1 0 1 1 1 4 3 1 1 2 3 3 2 3 3 3 3 3 3 3 3 2 3 2 2 2 3
10 6 6 6 4 5 7 8 7 5 7 6 3 2 3 4 4 5 4 6 6 7 5 4 5 5 5 4 4 4 4 5 6 5 6 6 6 4 3 3 4 4 5 6 4 5 4 3 4 4 5 4 3 3 2 2 1 2 0 1 0 1 3 4 3 3 1 1 1 2 4 2 1 2 2 2 3 3 3 2 3 3 3 2 1 1 1
6 5 3 3 3 4 6 8 7 8 8 8 7 7 5 4 5 5 5 5 3 3 4 4 4 4 4 5 4 4 6 7 6 5 5 6 5 3 2 3 3 4 4 7 5 4 3 3 5 5 4 4 4 4 4 3 2 1 1 1 0 1 2 2 3 3 2 2 1 1 2 2 2 2 2 2 3 4 4 4 3 4 3 3 2 1 1
5 8 5 5 4 6 6 6 6 7 7 8 7 5 4 4 5 4 1 2 4 4 5 5 4 4 6 8 7 4 4 5 5 5 5 2 1 1 1 2 2 2 2 4 5 3 3 2 3 6 4 2 3 3 3 6 3 1 0 0 1 2 3 5 4 3 3 3 2 1 1 3 2 2 1 2 3 3 3 3 3 3 3 3 2 2 2
4 8 8 7 6 6 5 5 5 6 6 5 2 3 6 5 4 3 4 3 3 4 4 6 7 7 4 2 1 4 5 4 4 5 4 3 1 1 3 2 4 2 3 5 3 2 3 3 3 3 3 3 2 2 4 6 4 3 1 1 1 2 3 3 4 2 2 2 1 1 1 1 3 2 1 1 2 3 4 4 4 2 2 3 2 2 2
4 2 4 4 4 5 5 4 4 5 8 9 5 4 3 4 4 4 4 4 3 4 5 5 3 2 3 4 5 4 5 5 5 5 4 4 2 3 5 6 6 6 7 4 1 3 4 4 2 2 3 3 3 3 3 5 5 4 5 2 1 1 2 3 2 1 0 1 2 1 0 2 2 3 3 2 1 1 2 3 3 2 2 3 3 3 3
6 6 6 5 5 4 6 5 5 5 5 7 9 6 4 4 4 5 4 3 3 4 4 4 4 5 4 4 4 5 6 5 4 4 4 2 2 2 4 7 7 7 6 7 5 5 5 5 3 4 4 4 2 2 2 2 2 3 4 4 5 4 2 2 2 3 2 2 3 4 2 3 3 3 3 2 2 2 2 2 4 4 4 3 2 3 2
7 6 5 6 5 5 6 6 5 4 5 5 6 6 5 6 4 4 4 4 3 2 4 5 5 4 4 5 5 6 5 2 2 3 2 2 1 3 4 6 4 3 3 3 3 3 2 3 3 4 5 4 5 3 1 1 2 2 3 4 4 4 3 3 4 5 5 3 4 5 5 5 3 3 3 2 3 2 2 3 4 4 3 4 4 4 3
5 6 6 6 5 6 5 4 5 4 2 3 4 5 5 4 6 6 6 4 3 2 4 4 6 5 5 4 3 2 2 3 2 3 4 5 6 5 3 6 5 4 3 2 2 2 1 2 3 5 6 5 4 4 3 0 1 1 3 3 3 4 4 2 2 5 5 3 3 4 4 4 4 5 4 3 3 3 3 3 3 4 5 4 4 5 3
6 7 6 6 5 6 6 6 6 6 5 4 4 5 6 5 4 3 3 3 2 1 1 1 3 3 1 3 3 3 3 1 2 3 3 6 5 4 5 5 4 3 3 2 1 1 3 5 4 5 6 6 5 6 1 1 2 3 3 3 3 4 4 4 4 4 4 3 3 3 4 5 6 5 4 4 5 4 3 3 5 6 5 5 5 5 5
5 7 7 7 6 5 6 6 5 5 6 5 4 2 2 3 4 4 4 3 1 1 2 2 1 2 3 3 3 3 3 2 3 3 3 5 5 4 6 7 7 6 4 3 1 2 4 3 3 6 7 7 6 5 2 1 1 1 2 3 5 4 4 5 4 4 3 3 3 4 5 4 6 4 4 5 4 3 3 3 3 3 5 5 5 5 5
7 7 6 6 6 6 6 6 7 8 6 3 4 3 4 4 4 4 3 3 2 1 1 2 2 3 3 3 4 5 6 6 6 6 3 3 4 6 2 4 6 5 4 4 3 2 4 5 5 5 4 4 3 2 0 1 1 1 2 3 4 4 4 3 5 5 4 4 3 4 4 5 6 5 6 5 5 5 4 5 5 4 5 4 4 4 3
7 6 6 7 7 7 7 6 4 3 4 4 2 0 1 2 4 4 4 4 3 3 3 2 2 3 3 4 3 2 1 2 3 4 4 5 3 4 2 3 2 2 3 3 2 3 4 5 5 3 2 2 1 1 0 0 0 1 1 3 4 4 4 5 3 3 3 3 3 3 4 5 4 6 6 5 5 5 4 3 3 3 3 5 5 6 6
6 4 4 5 5 4 4 4 4 5 4 4 4 2 2 4 4 5 5 4 3 1 2 3 4 4 4 4 5 3 1 1 2 3 6 5 5 6 5 3 4 4 4 2 3 4 5 5 4 2 1 1 1 1 1 1 1 2 2 3 4 4 3 3 3 4 2 2 2 3 3 3 4 4 4 4 4 4 4 3 3 4 3 3 4 5 2
6 5 5 6 6 5 5 5 6 5 5 6 5 4 3 2 1 1 0 1 1 1 1 0 1 0 2 3 3 2 4 5 2 5 3 3 3 2 2 3 5 6 5 3 4 6 6 7 5 3 3 3 1 2 3 3 2 2 3 4 4 5 5 3 3 3 2 1 1 1 3 4 4 4 4 5 6 5 4 4 4 3 3 4 5 5 5
7 7 5 4 6 6 6 6 5 5 6 5 4 4 3 2 2 2 2 1 2 2 2 1 1 0 1 1 2 1 2 2 2 2 2 1 2 3 3 4 6 7 4 4 4 5 5 6 6 5 4 3 3 3 3 2 2 2 3 4 5 5 4 3 3 2 1 1 1 1 2 2 3 4 5 5 6 6 5 5 4 4 4 4 4 4 5
5 6 5 6 5 5 6 7 6 7 7 5 6 4 3 4 4 1 0 1 3 3 2 1 1 1 1 2 1 2 3 2 2 2 3 2 2 3 2 2 3 5 5 3 3 4 4 4 4 5 4 4 4 3 3 3 3 3 3 4 4 4 3 2 3 3 1 1 1 2 3 3 3 4 3 5 4 5 5 5 5 5 5 5 4 4 3
6 8 7 7 7 7 8 9 8 7 6 6 5 4 5 5 6 5 4 4 4 4 4 3 2 3 3 3 4 2 1 1 1 1 1 2 2 2 3 3 3 3 2 3 4 5 6 3 2 3 4 5 4 3 1 3 4 5 5 4 5 4 3 2 3 2 1 0 0 0 1 2 2 2 3 4 4 4 4 4 4 5 4 5 5 5 4
7 6 5 5 7 7 7 4 3 5 5 6 6 5 4 5 6 4 1 4 5 7 7 5 4 5 4 4 4 4 3 0 0 1 1 1 2 2 2 1 0 1 3 4 5 5 4 3 3 4 4 4 3 3 4 4 4 4 6 4 4 4 3 4 3 0 0 0 0 1 2 2 3 3 4 4 3 5 3 4 5 5 5 4 4 3 3
Wind_Direction
66 71 95 96 80 75 86 74 59 51 45 54 70 41 107 109 135 170 136 108 95 86 68 64 63 66 70 67 62 61 61 55 50 47 44 39 27 20 21 21 17 10 1 353 350 350 348 350 355 354 354 354 356 354 355 350 349 346 342 348 343 345 339 345 337 332 322 94 150 200 230 203 183 179 177 180 181 173 164 188 192 186 175 163 145 128 107
58 52 72 90 98 92 67 57 59 56 63 68 74 70 65 88 80 94 105 95 91 84 70 57 55 65 77 72 64 59 50 42 42 45 43 38 28 24 20 16 12 4 358 356 357 356 357 358 357 358 357 358 357 358 356 354 354 350 347 349 354 347 353 347 341 336 331 325 240 173 210 210 198 186 176 180 189 175 168 168 165 154 156 159 157 156 143
47 38 72 73 86 88 78 50 53 65 75 68 51 74 79 85 76 86 92 94 92 70 67 64 58 72 80 73 62 54 48 38 39 41 41 35 29 20 18 13 9 6 4 4 2 1 360 359 358 358 358 355 357 359 357 358 356 354 354 349 349 355 357 353 345 341 332 315 274 222 199 205 207 184 177 182 193 181 147 149 151 156 151 148 154 154 149
61 347 99 102 93 83 75 51 34 31 39 57 18 46 339 113 129 122 108 100 118 120 89 78 71 72 69 66 55 49 39 29 28 30 31 35 27 22 16 12 12 11 10 6 4 359 357 356 356 0 356 356 0 360 357 359 355 353 360 356 355 352 352 359 0 347 331 312 281 267 290 227 194 194 185 183 198 176 149 142 135 131 140 137 140 137 125
142 186 188 115 108 82 46 21 31 65 82 104 78 39 35 35 103 129 142 135 116 126 122 97 77 75 71 62 49 42 36 24 27 25 29 32 30 19 13 10 8 7 2 359 358 355 356 353 354 352 353 358 1 356 358 356 354 3 3 4 0 359 355 354 358 354 329 323 310 261 199 190 183 178 172 165 141 172 159 134 119 118 114 110 104 98 124
151 191 255 333 49 73 182 346 296 247 161 107 77 48 43 34 48 87 77 113 115 112 109 104 101 84 76 69 57 48 38 26 26 28 24 22 19 12 8 3 1 356 354 356 354 354 353 350 349 342 351 358 353 355 359 1 8 6 8 7 6 3 357 358 356 355 351 346 348 346 304 225 190 129 152 148 109 82 78 87 99 98 88 80 56 53 52
156 188 10 51 57 214 21 54 69 76 88 87 88 66 51 64 77 87 95 107 111 113 107 109 104 94 83 66 55 37 35 29 27 28 25 20 15 17 9 1 360 355 351 352 357 360 357 351 345 347 348 352 349 359 357 6 11 10 10 8 12 6 3 356 354 357 359 3 360 355 352 334 247 142 126 102 92 91 85 81 80 79 83 74 60 51 43
77 52 14 126 227 127 117 99 95 123 86 95 88 62 38 37 72 102 107 106 111 114 113 110 110 104 99 75 51 34 26 23 22 31 25 19 21 19 16 2 359 358 353 354 355 355 352 358 350 351 348 343 356 352 351 15 11 11 9 15 15 8 6 0 357 354 357 10 9 8 7 9 0 112 119 117 120 112 89 69 69 75 55 54 52 48 38
125 99 51 79 121 142 154 114 20 19 51 1 41 116 25 23 28 108 118 121 121 119 124 128 129 126 96 68 39 18 19 14 19 37 30 22 20 17 8 3 2 356 352 359 356 5 8 6 1 351 346 352 355 355 7 11 13 11 14 17 11 7 6 2 359 355 355 7 28 20 18 26 31 21 23 86 91 100 103 88 75 59 55 52 48 53 50
99 129 96 118 164 211 187 124 66 34 354 324 327 95 125 44 20 66 138 136 135 135 142 154 166 186 66 55 30 357 3 9 18 30 38 27 22 15 7 5 5 3 359 360 5 15 11 7 4 359 359 360 359 4 5 5 9 10 16 12 4 6 6 3 0 359 359 5 29 38 31 32 34 38 35 11 35 57 95 103 83 66 52 37 44 57 55
93 93 120 153 187 233 57 128 333 357 324 317 327 72 183 107 42 11 123 136 148 154 165 174 195 52 80 113 350 335 344 13 22 33 23 26 24 16 14 7 359 355 356 1 10 12 11 11 359 4 7 10 11 6 3 359 2 12 11 2 359 357 359 1 4 5 3 8 18 43 52 39 35 41 37 32 17 35 86 94 88 84 70 50 32 39 47
93 131 101 169 4 232 259 267 294 295 323 317 239 299 248 117 43 30 62 146 161 171 168 125 56 97 145 157 181 283 328 20 34 30 17 14 10 8 2 5 353 351 0 11 11 8 7 3 358 3 5 14 15 10 1 356 4 6 2 358 349 345 348 359 8 12 12 12 15 22 48 64 56 44 38 41 28 28 19 71 95 90 83 73 55 34 32
94 85 86 44 24 262 317 327 319 303 257 2 153 233 152 148 80 50 74 114 95 112 108 121 110 329 91 122 138 115 47 49 26 10 11 7 359 5 356 352 352 2 359 3 2 360 360 357 2 360 2 15 13 8 4 6 0 347 341 348 357 351 346 355 7 16 15 18 18 18 22 57 68 64 63 43 32 36 21 18 80 83 80 79 73 51 38
102 133 101 168 175 190 16 304 299 300 84 160 222 122 119 116 112 123 126 106 96 95 105 109 112 120 107 109 93 81 61 64 13 15 359 2 6 0 358 358 8 360 353 354 354 353 353 356 360 358 1 15 12 12 13 6 348 335 347 350 353 357 356 354 1 11 18 18 23 22 19 15 72 74 57 67 59 36 35 33 55 74 70 69 72 67 53
53 35 89 75 177 184 44 308 350 20 139 315 120 117 86 104 115 110 94 101 110 113 102 105 114 111 104 104 103 93 79 62 31 357 354 353 353 351 356 355 352 2 350 351 347 345 343 352 356 357 2 10 10 20 20 360 351 2 0 1 358 1 360 0 359 2 8 21 25 25 25 31 36 54 78 76 59 50 48 42 49 61 62 55 56 57 53
134 109 132 196 27 335 296 218 148 53 51 122 126 119 109 98 105 106 106 94 106 111 115 121 113 115 113 109 126 122 124 309 301 333 324 338 345 343 335 333 331 346 346 342 343 337 343 348 354 355 0 2 2 13 8 347 14 9 7 5 9 6 2 1 2 2 5 10 21 26 26 27 42 45 35 45 73 69 54 45 50 61 57 49 51 52 51
130 154 117 81 70 35 34 88 100 97 99 106 109 102 115 123 107 115 111 117 117 123 126 120 124 117 137 140 159 149 216 236 287 299 320 323 323 324 325 318 322 332 336 328 330 334 333 341 345 352 349 2 2 359 335 350 14 16 11 11 14 11 5 1 2 358 7 14 16 21 22 22 43 43 42 38 52 40 76 72 57 59 56 46 46 47 51
85 67 78 99 75 74 72 68 87 104 103 100 112 119 113 108 122 137 133 137 139 137 132 126 124 143 165 151 171 202 234 278 294 315 333 334 333 328 328 324 329 324 326 330 334 335 329 338 346 344 339 356 9 331 327 350 358 15 23 17 13 9 12 11 5 3 9 11 17 17 18 25 33 33 47 48 50 45 51 55 54 57 58 61 52 51 53
105 72 96 99 108 109 107 101 92 93 103 115 120 111 112 125 130 128 134 136 136 130 119 124 137 145 143 134 177 308 320 322 320 314 313 307 303 301 308 305 323 326 334 335 337 339 332 333 344 339 338 339 345 331 343 353 360 10 24 17 13 11 11 13 20 20 20 9 12 18 15 12 24 31 30 44 53 44 39 44 47 46 47 46 56 56 62
81 120 122 108 101 101 104 110 121 117 113 109 105 108 107 108 114 126 128 115 107 108 110 117 131 142 140 148 237 322 302 298 300 303 298 303 317 312 295 305 328 326 345 353 351 352 339 329 336 329 338 329 339 343 349 360 2 21 23 14 15 15 11 8 27 29 29 23 26 29 23 23 15 18 24 39 55 44 32 32 63 67 52 47 45 46 41
95 94 91 103 101 87 80 97 89 111 133 128 113 109 111 113 112 105 87 74 118 112 128 125 133 144 192 199 210 249 287 298 294 292 305 308 308 311 331 336 343 338 329 355 3 359 343 329 336 328 322 332 340 353 346 355 5 28 20 11 16 25 18 22 25 21 30 37 43 44 44 39 37 22 12 14 34 47 31 5 2 80 98 66 62 62 61
131 161 161 162 123 136 158 175 138 127 117 121 117 114 115 122 123 124 111 80 61 112 143 144 143 167 201 233 207 238 256 270 284 300 309 315 319 316 318 314 339 347 340 3 12 7 344 337 350 351 331 339 345 358 352 356 8 38 27 22 17 13 15 28 22 33 31 29 38 56 50 45 47 53 46 50 37 52 40 42 56 50 60 81 78 108 94
151 164 166 221 115 125 156 160 153 140 137 131 136 143 143 149 158 149 133 131 72 221 225 158 156 190 206 238 220 254 278 276 274 277 285 304 310 311 325 342 340 329 348 5 7 9 348 341 8 11 358 344 348 352 1 349 5 40 40 39 21 7 14 19 16 37 60 55 34 51 55 59 54 60 58 41 44 46 56 66 69 67 65 64 58 43 60
105 151 164 138 137 138 160 158 149 151 153 144 144 148 153 163 171 175 174 177 171 202 228 237 199 201 220 228 174 245 278 279 298 298 290 271 261 272 301 323 297 336 4 354 352 335 329 339 352 2 11 355 346 337 356 1 347 49 50 59 38 8 357 4 22 32 40 57 57 73 55 52 50 68 70 75 50 36 46 59 63 68 69 65 59 53 42
152 171 153 145 136 133 135 149 152 159 165 154 155 173 180 182 195 181 181 204 229 176 187 228 240 203 215 238 198 226 265 286 285 263 263 357 2 356 297 302 356 358 325 311 302 322 335 345 349 345 356 348 342 346 343 15 353 51 46 57 41 21 14 8 11 23 36 39 38 86 125 99 75 58 79 90 90 78 39 51 70 70 61 54 55 55 51
125 122 111 86 87 89 84 72 69 191 181 168 131 163 208 192 182 167 203 198 217 216 218 236 258 267 210 240 142 212 258 274 285 146 102 111 275 289 345 346 319 313 309 315 334 351 345 340 339 337 346 333 334 333 318 18 53 29 63 45 50 51 31 9 20 32 12 15 40 49 126 107 104 94 73 95 113 108 97 66 36 39 45 40 35 44 51
100 112 107 92 87 108 141 155 191 208 197 198 189 192 192 189 178 187 235 211 219 204 219 239 242 283 309 242 196 203 224 224 72 234 153 176 212 254 283 290 312 308 334 349 349 347 343 339 338 337 326 319 320 323 328 311 91 17 47 24 15 19 33 41 55 39 352 0 35 37 70 100 94 90 90 67 74 94 107 104 90 57 15 8 23 39 49
130 135 131 143 166 175 202 204 182 177 184 192 201 195 19 92 93 99 279 293 295 290 285 250 247 271 279 261 175 95 98 143 184 191 151 194 230 267 293 304 316 333 344 358 346 343 348 342 337 329 310 306 321 325 337 317 30 65 54 74 31 30 17 23 36 35 22 21 20 56 73 104 122 110 96 90 94 102 93 94 98 85 53 30 41 40 49
151 158 160 162 179 185 169 98 80 149 198 219 131 118 131 144 172 210 244 243 244 260 272 275 240 219 210 216 158 149 170 192 189 189 206 231 262 275 296 319 325 337 12 350 347 350 347 341 336 330 308 305 318 337 338 331 315 67 343 33 63 46 29 18 45 47 46 42 37 25 68 104 121 125 122 117 114 107 92 86 78 73 80 84 93 65 45
163 157 148 164 137 110 119 163 189 190 199 187 170 189 178 162 183 219 236 249 231 224 237 227 172 152 147 154 173 167 176 188 196 207 223 250 267 296 320 325 346 5 4 359 342 338 334 326 324 317 308 321 318 332 336 340 311 140 24 21 48 54 20 2 44 61 58 65 28 27 47 90 119 136 149 150 159 137 116 94 77 82 77 54 65 96 92
151 151 148 145 148 170 167 178 172 187 188 184 179 166 172 173 185 211 240 249 237 223 213 174 179 154 162 183 182 189 187 181 196 204 237 277 295 296 311 322 31 332 312 302 307 315 314 303 307 307 305 315 312 320 324 331 316 301 65 35 29 39 38 6 35 42 75 83 77 56 26 47 94 131 149 153 136 128 106 96 86 76 71 68 78 83 84
111 119 127 144 159 143 123 144 150 165 165 156 152 170 173 165 177 199 221 214 199 177 150 140 151 177 183 168 146 159 178 193 227 322 316 305 295 288 283 269 280 269 275 283 295 295 291 301 318 312 317 319 320 318 314 304 336 316 78 73 38 14 24 24 19 16 28 93 115 103 64 87 87 83 102 132 154 109 82 81 80 69 60 71 75 74 62
108 96 94 96 84 119 141 173 143 155 153 161 175 177 174 167 166 176 183 166 117 149 153 176 187 171 154 142 142 163 156 97 17 327 301 287 281 277 292 293 250 267 286 282 278 277 264 281 294 304 315 321 320 321 323 315 298 284 108 105 117 41 42 38 2 22 33 34 125 140 116 80 81 90 110 116 112 106 98 98 95 75 67 84 99 118 121
151 168 180 184 161 168 160 173 136 131 163 162 148 153 159 177 162 155 156 153 140 152 175 188 184 159 140 151 161 142 124 119 243 260 255 256 262 273 292 303 283 289 281 289 298 290 268 254 274 300 311 323 323 323 329 27 87 116 118 115 119 70 319 310 68 54 43 2 190 124 103 107 130 147 146 128 116 114 114 115 111 109 107 119 145 154 163
163 171 169 179 182 161 150 146 155 167 150 140 147 176 173 175 154 157 164 154 166 193 188 154 154 157 154 147 152 160 163 189 215 220 239 243 254 269 304 330 346 352 340 323 307 282 257 258 281 302 315 317 327 343 356 57 113 109 64 62 54 310 326 336 334 47 28 238 263 113 108 121 142 92 95 116 124 113 112 120 139 144 138 126 98 59 86
120 112 110 127 144 149 148 149 163 167 157 162 167 173 182 188 155 141 165 200 197 130 131 142 141 130 149 163 172 191 208 228 230 235 248 254 261 280 307 342 350 342 342 322 298 266 259 267 291 310 310 325 343 347 351 358 8 46 52 47 17 343 322 331 348 24 52 96 62 28 127 130 113 108 107 103 110 124 138 151 158 150 153 160 164 124 122
148 137 148 145 153 147 145 149 164 161 158 158 155 161 165 175 176 200 201 145 145 161 150 139 126 155 196 209 205 210 226 220 217 221 234 255 281 277 297 316 318 294 326 316 277 278 273 261 288 319 310 341 348 341 337 350 335 358 99 84 42 348 22 17 358 36 68 65 70 56 72 99 96 91 84 112 126 149 161 150 153 179 171 162 160 168 175
150 136 145 146 153 139 146 164 160 138 116 125 148 168 170 170 184 172 191 191 178 164 163 164 182 199 196 161 190 228 250 254 246 250 262 273 261 252 288 272 278 241 262 254 246 292 276 274 296 292 285 314 316 314 320 331 317 303 357 339 13 358 3 29 2 19 61 69 69 65 64 166 152 150 113 95 157 159 162 178 180 167 169 168 184 188 183
104 84 98 118 123 125 121 126 137 136 142 149 164 172 194 161 173 159 173 207 205 152 163 196 188 156 175 183 219 253 263 252 239 243 255 262 218 198 243 238 236 218 221 231 239 269 283 290 285 271 282 275 270 301 312 329 350 346 331 349 357 28 343 349 350 311 212 171 141 150 168 252 219 175 198 194 205 199 190 184 163 160 172 180 190 204 214
138 136 143 130 118 125 116 131 143 154 160 151 149 168 185 162 179 177 192 202 214 173 175 155 154 180 194 205 218 246 255 250 230 211 230 217 181 239 289 293 265 250 243 253 259 261 262 267 271 279 278 279 274 259 276 299 337 359 354 351 347 345 348 305 300 299 274 196 201 170 199 230 232 217 212 203 200 191 191 189 183 186 185 182 224 244 235
146 142 137 117 129 123 125 125 138 152 148 153 162 164 168 168 161 155 181 203 221 163 165 163 164 185 195 199 205 224 242 251 206 194 160 122 182 228 243 266 274 263 231 212 229 255 271 254 241 256 268 275 292 289 281 329 8 14 357 344 346 341 341 321 304 289 268 235 207 201 205 210 214 224 217 222 232 215 202 189 195 190 197 189 219 226 215
145 127 118 118 122 121 120 124 122 118 158 185 172 161 174 174 161 182 203 203 192 185 190 203 190 189 202 208 212 237 277 272 213 169 179 181 207 207 224 263 260 258 265 230 226 226 244 249 249 242 255 266 271 267 256 273 103 34 14 9 348 333 324 327 275 274 275 246 212 197 194 193 206 219 210 216 236 234 225 197 194 206 202 200 198 222 204
143 132 130 131 133 133 136 143 148 158 171 199 189 189 192 188 198 190 190 208 204 192 200 246 264 270 212 185 191 216 249 251 198 206 233 254 235 196 195 230 271 282 253 240 231 259 255 248 244 248 246 249 258 268 39 64 52 42 18 355 340 332 324 314 299 272 261 234 196 192 195 200 206 211 200 210 226 223 220 205 199 206 204 200 199 215 227
150 134 139 140 146 148 140 139 142 142 150 195 208 200 204 208 200 188 193 190 198 229 225 251 227 247 243 200 172 210 261 233 223 207 202 285 313 266 223 236 254 266 254 216 209 266 286 260 242 253 265 269 283 318 350 61 66 39 8 351 331 324 317 322 316 297 248 212 203 198 206 210 216 211 200 214 227 222 218 225 231 214 210 208 207 212 230
148 147 151 148 148 138 139 143 155 174 191 178 163 177 189 205 217 208 165 177 192 223 210 214 214 223 221 195 198 211 215 210 191 157 153 255 276 288 280 217 237 249 249 225 223 249 268 275 272 272 276 300 321 313 308 51 25 15 346 332 318 316 311 313 305 288 254 217 201 214 208 214 216 208 204 212 216 214 207 210 220 210 203 208 202 215 236
157 161 154 137 141 162 173 167 160 134 130 123 108 344 268 221 186 167 179 162 177 214 207 197 197 210 193 206 232 262 248 217 213 210 204 178 194 233 268 279 226 204 195 187 227 257 263 276 280 272 298 323 325 15 340 250 186 329 343 320 303 297 296 310 304 280 240 247 237 204 214 221 215 215 208 211 214 215 215 204 219 216 213 207 193 201 217
158 164 166 154 167 147 122 121 125 113 106 107 123 176 227 179 170 167 187 200 193 198 236 231 228 235 208 174 157 140 147 293 306 262 230 245 250 263 269 242 191 173 161 183 210 234 245 260 268 298 330 307 280 263 252 252 262 259 267 278 285 286 277 288 292 274 232 199 209 211 225 223 222 214 210 223 228 228 216 199 215 226 209 213 217 223 199
160 169 183 160 139 136 132 128 127 138 145 155 171 181 198 227 223 200 305 111 107 119 138 202 239 221 165 184 215 205 170 162 210 288 249 226 237 249 272 225 219 203 197 223 252 268 270 263 260 238 221 226 232 254 256 254 250 256 267 278 287 286 286 312 319 287 232 174 179 201 217 224 220 208 205 211 224 224 211 205 215 221 210 210 226 212 220
171 168 159 122 123 137 142 146 141 152 175 184 156 187 200 126 89 53 42 66 109 120 143 131 140 160 214 210 195 185 210 192 157 228 272 298 262 259 250 238 252 234 209 212 243 264 269 257 252 251 243 237 247 261 274 274 280 280 275 274 272 274 268 262 276 267 224 245 236 237 247 241 227 203 207 213 220 221 213 212 211 209 213 215 235 240 230
149 118 118 131 133 142 153 149 170 185 182 168 174 190 166 132 115 179 167 111 165 156 160 214 237 269 279 292 275 205 204 227 252 270 286 290 285 282 264 232 231 233 226 219 258 279 279 264 255 252 256 268 269 267 280 294 283 267 258 261 261 250 247 245 274 262 192 172 218 253 256 242 224 224 234 234 230 228 220 214 208 211 215 216 223 241 236
140 144 161 172 174 175 174 174 181 178 173 179 179 161 156 157 172 197 177 172 152 142 176 222 271 276 281 283 286 287 229 192 208 279 311 323 341 330 296 238 232 247 260 270 268 274 285 284 268 261 263 256 256 262 278 279 285 292 287 269 256 243 243 247 237 233 194 128 141 192 223 255 268 267 252 245 251 246 227 212 208 208 205 216 220 226 228
152 150 157 154 155 166 183 195 179 172 168 164 158 164 193 165 148 172 212 203 172 170 180 179 230 258 226 242 259 271 277 261 82 326 340 348 359 1 342 35 96 296 274 266 269 272 274 272 266 257 256 265 274 275 250 245 260 275 281 278 281 274 250 233 229 177 135 195 164 10 354 341 339 331 316 295 260 245 233 219 214 213 211 213 210 205 203